![]() |
EMODnet Physics ERDDAP
Easier access to scientific data |
log in|
Brought to you by EMODnet Physics |
| Dataset Title: | NDBC - Collection of dew point temperature (DEWT) TimeSeries - IN SITU MultiPointTimeSeriesObservation
|
| Institution: | NDBC (Dataset ID: TS_DEWT_NDBC) |
| Information: | Summary
| License
| FGDC
| ISO 19115
| Metadata
| Background
| Subset
| Data Access Form
| Make a graph
|
| Name | Last modified | Size | Description | |
|---|---|---|---|---|
| Parent Directory | - | - | ||
| MCYI3_TS_DEWT_012013.nc | 22-Dec-2024 14:19 | 451170 | ||
| MCYI3_TS_DEWT_012014.nc | 22-Dec-2024 14:21 | 449089 | ||
| MCYI3_TS_DEWT_012015.nc | 22-Dec-2024 14:24 | 432258 | ||
| MCYI3_TS_DEWT_012016.nc | 22-Dec-2024 14:26 | 615693 | ||
| MCYI3_TS_DEWT_012017.nc | 22-Dec-2024 14:30 | 655186 | ||
| MCYI3_TS_DEWT_012018.nc | 22-Dec-2024 14:33 | 653792 | ||
| MCYI3_TS_DEWT_012019.nc | 22-Dec-2024 14:36 | 652549 | ||
| MCYI3_TS_DEWT_012020.nc | 22-Dec-2024 14:40 | 646080 | ||
| MCYI3_TS_DEWT_012021.nc | 22-Dec-2024 14:43 | 647776 | ||
| MCYI3_TS_DEWT_012022.nc | 22-Dec-2024 14:47 | 421656 | ||
| MCYI3_TS_DEWT_012023.nc | 22-Dec-2024 14:50 | 3487227 | ||
| MCYI3_TS_DEWT_012025.nc | 07-Feb-2025 12:10 | 2163877 | ||
| MCYI3_TS_DEWT_012026.nc | 02-Feb-2026 18:27 | 425434 | ||
| MCYI3_TS_DEWT_022013.nc | 22-Dec-2024 14:19 | 452618 | ||
| MCYI3_TS_DEWT_022014.nc | 22-Dec-2024 14:21 | 451773 | ||
| MCYI3_TS_DEWT_022015.nc | 22-Dec-2024 14:24 | 451471 | ||
| MCYI3_TS_DEWT_022016.nc | 22-Dec-2024 14:27 | 450660 | ||
| MCYI3_TS_DEWT_022017.nc | 22-Dec-2024 14:30 | 451925 | ||
| MCYI3_TS_DEWT_022018.nc | 22-Dec-2024 14:34 | 452629 | ||
| MCYI3_TS_DEWT_022019.nc | 22-Dec-2024 14:37 | 450830 | ||
| MCYI3_TS_DEWT_022020.nc | 22-Dec-2024 14:40 | 445475 | ||
| MCYI3_TS_DEWT_022021.nc | 22-Dec-2024 14:43 | 663300 | ||
| MCYI3_TS_DEWT_022022.nc | 22-Dec-2024 14:47 | 597873 | ||
| MCYI3_TS_DEWT_022023.nc | 22-Dec-2024 14:51 | 661313 | ||
| MCYI3_TS_DEWT_022025.nc | 01-Mar-2025 07:01 | 663242 | ||
| MCYI3_TS_DEWT_022026.nc | 01-Mar-2026 08:47 | 635019 | ||
| MCYI3_TS_DEWT_032013.nc | 22-Dec-2024 14:19 | 660674 | ||
| MCYI3_TS_DEWT_032014.nc | 22-Dec-2024 14:22 | 660402 | ||
| MCYI3_TS_DEWT_032015.nc | 22-Dec-2024 14:24 | 3649290 | ||
| MCYI3_TS_DEWT_032016.nc | 22-Dec-2024 14:27 | 429493 | ||
| MCYI3_TS_DEWT_032017.nc | 22-Dec-2024 14:30 | 453594 | ||
| MCYI3_TS_DEWT_032018.nc | 22-Dec-2024 14:34 | 452508 | ||
| MCYI3_TS_DEWT_032019.nc | 22-Dec-2024 14:37 | 448870 | ||
| MCYI3_TS_DEWT_032020.nc | 22-Dec-2024 14:40 | 452219 | ||
| MCYI3_TS_DEWT_032021.nc | 22-Dec-2024 14:44 | 451374 | ||
| MCYI3_TS_DEWT_032022.nc | 22-Dec-2024 14:47 | 452183 | ||
| MCYI3_TS_DEWT_032023.nc | 22-Dec-2024 14:51 | 452137 | ||
| MCYI3_TS_DEWT_032025.nc | 02-Apr-2025 05:24 | 452025 | ||
| MCYI3_TS_DEWT_032026.nc | 25-Mar-2026 12:12 | 656421 | ||
| MCYI3_TS_DEWT_042013.nc | 22-Dec-2024 14:20 | 597596 | ||
| MCYI3_TS_DEWT_042014.nc | 22-Dec-2024 14:22 | 654683 | ||
| MCYI3_TS_DEWT_042015.nc | 22-Dec-2024 14:24 | 654873 | ||
| MCYI3_TS_DEWT_042016.nc | 22-Dec-2024 14:27 | 653612 | ||
| MCYI3_TS_DEWT_042017.nc | 22-Dec-2024 14:31 | 655639 | ||
| MCYI3_TS_DEWT_042018.nc | 22-Dec-2024 14:34 | 655259 | ||
| MCYI3_TS_DEWT_042019.nc | 22-Dec-2024 14:37 | 4494557 | ||
| MCYI3_TS_DEWT_042020.nc | 22-Dec-2024 14:41 | 429837 | ||
| MCYI3_TS_DEWT_042021.nc | 22-Dec-2024 14:44 | 450534 | ||
| MCYI3_TS_DEWT_042023.nc | 22-Dec-2024 14:51 | 452274 | ||
| MCYI3_TS_DEWT_042025.nc | 01-May-2025 06:35 | 441080 | ||
| MCYI3_TS_DEWT_052013.nc | 22-Dec-2024 14:20 | 450997 | ||
| MCYI3_TS_DEWT_052014.nc | 22-Dec-2024 14:22 | 453303 | ||
| MCYI3_TS_DEWT_052015.nc | 22-Dec-2024 14:24 | 450721 | ||
| MCYI3_TS_DEWT_052016.nc | 22-Dec-2024 14:28 | 453444 | ||
| MCYI3_TS_DEWT_052017.nc | 22-Dec-2024 14:31 | 660420 | ||
| MCYI3_TS_DEWT_052018.nc | 22-Dec-2024 14:35 | 594275 | ||
| MCYI3_TS_DEWT_052019.nc | 22-Dec-2024 14:37 | 660814 | ||
| MCYI3_TS_DEWT_052020.nc | 22-Dec-2024 14:41 | 633434 | ||
| MCYI3_TS_DEWT_052021.nc | 22-Dec-2024 14:44 | 662619 | ||
| MCYI3_TS_DEWT_052023.nc | 22-Dec-2024 14:52 | 658347 | ||
| MCYI3_TS_DEWT_052025.nc | 01-Jun-2025 07:17 | 653293 | ||
| MCYI3_TS_DEWT_062013.nc | 22-Dec-2024 14:20 | 4547899 | ||
| MCYI3_TS_DEWT_062014.nc | 22-Dec-2024 14:22 | 429475 | ||
| MCYI3_TS_DEWT_062015.nc | 22-Dec-2024 14:25 | 450569 | ||
| MCYI3_TS_DEWT_062016.nc | 22-Dec-2024 14:28 | 450712 | ||
| MCYI3_TS_DEWT_062017.nc | 22-Dec-2024 14:31 | 449570 | ||
| MCYI3_TS_DEWT_062019.nc | 22-Dec-2024 14:38 | 450909 | ||
| MCYI3_TS_DEWT_062020.nc | 22-Dec-2024 14:41 | 449374 | ||
| MCYI3_TS_DEWT_062021.nc | 22-Dec-2024 14:44 | 450874 | ||
| MCYI3_TS_DEWT_062022.nc | 22-Dec-2024 14:48 | 452672 | ||
| MCYI3_TS_DEWT_062023.nc | 22-Dec-2024 14:52 | 652192 | ||
| MCYI3_TS_DEWT_062025.nc | 17-Jun-2025 05:45 | 597626 | ||
| MCYI3_TS_DEWT_072013.nc | 22-Dec-2024 14:20 | 657594 | ||
| MCYI3_TS_DEWT_072014.nc | 22-Dec-2024 14:22 | 641155 | ||
| MCYI3_TS_DEWT_072015.nc | 22-Dec-2024 14:25 | 655521 | ||
| MCYI3_TS_DEWT_072016.nc | 22-Dec-2024 14:28 | 654250 | ||
| MCYI3_TS_DEWT_072017.nc | 22-Dec-2024 14:32 | 651149 | ||
| MCYI3_TS_DEWT_072019.nc | 22-Dec-2024 14:38 | 4741282 | ||
| MCYI3_TS_DEWT_072020.nc | 22-Dec-2024 14:41 | 429841 | ||
| MCYI3_TS_DEWT_072021.nc | 22-Dec-2024 14:45 | 450557 | ||
| MCYI3_TS_DEWT_072022.nc | 22-Dec-2024 14:49 | 451437 | ||
| MCYI3_TS_DEWT_072023.nc | 22-Dec-2024 14:52 | 446080 | ||
| MCYI3_TS_DEWT_072025.nc | 16-Aug-2025 07:47 | 448984 | ||
| MCYI3_TS_DEWT_082013.nc | 22-Dec-2024 14:20 | 447694 | ||
| MCYI3_TS_DEWT_082014.nc | 22-Dec-2024 14:23 | 451786 | ||
| MCYI3_TS_DEWT_082015.nc | 22-Dec-2024 14:25 | 452672 | ||
| MCYI3_TS_DEWT_082016.nc | 22-Dec-2024 14:29 | 660215 | ||
| MCYI3_TS_DEWT_082017.nc | 22-Dec-2024 14:32 | 654797 | ||
| MCYI3_TS_DEWT_082018.nc | 22-Dec-2024 14:35 | 660582 | ||
| MCYI3_TS_DEWT_082019.nc | 22-Dec-2024 14:38 | 453334 | ||
| MCYI3_TS_DEWT_082020.nc | 22-Dec-2024 14:42 | 663461 | ||
| MCYI3_TS_DEWT_082021.nc | 22-Dec-2024 14:45 | 657830 | ||
| MCYI3_TS_DEWT_082022.nc | 22-Dec-2024 14:49 | 657230 | ||
| MCYI3_TS_DEWT_082023.nc | 22-Dec-2024 14:53 | 2464064 | ||
| MCYI3_TS_DEWT_082025.nc | 01-Sep-2025 07:53 | 429563 | ||
| MCYI3_TS_DEWT_092012.nc | 22-Dec-2024 14:18 | 451376 | ||
| MCYI3_TS_DEWT_092013.nc | 22-Dec-2024 14:21 | 451379 | ||
| MCYI3_TS_DEWT_092014.nc | 22-Dec-2024 14:23 | 443058 | ||
| MCYI3_TS_DEWT_092015.nc | 22-Dec-2024 14:25 | 450013 | ||
| MCYI3_TS_DEWT_092016.nc | 22-Dec-2024 14:29 | 445839 | ||
| MCYI3_TS_DEWT_092017.nc | 22-Dec-2024 14:32 | 451898 | ||
| MCYI3_TS_DEWT_092018.nc | 22-Dec-2024 14:36 | 454115 | ||
| MCYI3_TS_DEWT_092019.nc | 22-Dec-2024 14:38 | 656314 | ||
| MCYI3_TS_DEWT_092020.nc | 22-Dec-2024 14:42 | 657995 | ||
| MCYI3_TS_DEWT_092021.nc | 22-Dec-2024 14:45 | 662913 | ||
| MCYI3_TS_DEWT_092022.nc | 22-Dec-2024 14:49 | 658281 | ||
| MCYI3_TS_DEWT_092023.nc | 22-Dec-2024 14:53 | 659548 | ||
| MCYI3_TS_DEWT_092025.nc | 01-Oct-2025 08:17 | 652615 | ||
| MCYI3_TS_DEWT_102012.nc | 22-Dec-2024 14:19 | 651112 | ||
| MCYI3_TS_DEWT_102013.nc | 22-Dec-2024 14:21 | 3002315 | ||
| MCYI3_TS_DEWT_102014.nc | 22-Dec-2024 14:23 | 430799 | ||
| MCYI3_TS_DEWT_102015.nc | 22-Dec-2024 14:26 | 448631 | ||
| MCYI3_TS_DEWT_102016.nc | 22-Dec-2024 14:29 | 449817 | ||
| MCYI3_TS_DEWT_102017.nc | 22-Dec-2024 14:32 | 443094 | ||
| MCYI3_TS_DEWT_102018.nc | 22-Dec-2024 14:36 | 447929 | ||
| MCYI3_TS_DEWT_102019.nc | 22-Dec-2024 14:39 | 447442 | ||
| MCYI3_TS_DEWT_102020.nc | 22-Dec-2024 14:42 | 452400 | ||
| MCYI3_TS_DEWT_102021.nc | 22-Dec-2024 14:46 | 450716 | ||
| MCYI3_TS_DEWT_102022.nc | 22-Dec-2024 14:50 | 655142 | ||
| MCYI3_TS_DEWT_102023.nc | 22-Dec-2024 14:53 | 649030 | ||
| MCYI3_TS_DEWT_102025.nc | 01-Nov-2025 07:43 | 657362 | ||
| MCYI3_TS_DEWT_112012.nc | 22-Dec-2024 14:19 | 653796 | ||
| MCYI3_TS_DEWT_112013.nc | 22-Dec-2024 14:21 | 661307 | ||
| MCYI3_TS_DEWT_112014.nc | 22-Dec-2024 14:23 | 651289 | ||
| MCYI3_TS_DEWT_112015.nc | 22-Dec-2024 14:26 | 639344 | ||
| MCYI3_TS_DEWT_112016.nc | 22-Dec-2024 14:30 | 4168678 | ||
| MCYI3_TS_DEWT_112017.nc | 22-Dec-2024 14:33 | 425572 | ||
| MCYI3_TS_DEWT_112018.nc | 22-Dec-2024 14:36 | 449679 | ||
| MCYI3_TS_DEWT_112019.nc | 22-Dec-2024 14:39 | 451910 | ||
| MCYI3_TS_DEWT_112020.nc | 22-Dec-2024 14:42 | 452441 | ||
| MCYI3_TS_DEWT_112021.nc | 22-Dec-2024 14:46 | 452443 | ||
| MCYI3_TS_DEWT_112022.nc | 22-Dec-2024 14:50 | 449246 | ||
| MCYI3_TS_DEWT_112023.nc | 22-Dec-2024 14:54 | 451528 | ||
| MCYI3_TS_DEWT_112024.nc | 17-Jan-2025 19:05 | 452722 | ||
| MCYI3_TS_DEWT_112025.nc | 01-Dec-2025 05:24 | 452207 | ||
| MCYI3_TS_DEWT_122012.nc | 22-Dec-2024 14:19 | 418986 | ||
| MCYI3_TS_DEWT_122013.nc | 22-Dec-2024 14:21 | 470143 | ||
| MCYI3_TS_DEWT_122014.nc | 22-Dec-2024 14:24 | 661185 | ||
| MCYI3_TS_DEWT_122015.nc | 22-Dec-2024 14:26 | 659860 | ||
| MCYI3_TS_DEWT_122016.nc | 22-Dec-2024 14:30 | 659586 | ||
| MCYI3_TS_DEWT_122017.nc | 22-Dec-2024 14:33 | 657915 | ||
| MCYI3_TS_DEWT_122018.nc | 22-Dec-2024 14:36 | 654918 | ||
| MCYI3_TS_DEWT_122019.nc | 22-Dec-2024 14:39 | 657528 | ||
| MCYI3_TS_DEWT_122020.nc | 22-Dec-2024 14:43 | 5016980 | ||
| MCYI3_TS_DEWT_122021.nc | 22-Dec-2024 14:46 | 428471 | ||
| MCYI3_TS_DEWT_122022.nc | 22-Dec-2024 14:50 | 450536 | ||
| MCYI3_TS_DEWT_122023.nc | 22-Dec-2024 14:54 | 452446 | ||
| MCYI3_TS_DEWT_122024.nc | 23-Jan-2025 04:12 | 451654 | ||
| MCYI3_TS_DEWT_122025.nc | 29-Dec-2025 05:50 | 439500 | ||